Year,Month,Day,Hour,Minute,Value (Times are PST for temperature in C)
2016,03,30,00,01,7.80
2016,03,30,00,02,7.80
2016,03,30,00,03,7.80
2016,03,30,00,04,7.80
2016,03,30,00,06,7.80
2016,03,30,00,07,7.90
2016,03,30,00,08,7.90
2016,03,30,00,09,7.90
2016,03,30,00,10,7.90
2016,03,30,00,11,7.90
2016,03,30,00,12,7.90
2016,03,30,00,13,8.10
2016,03,30,00,14,8.10
2016,03,30,00,15,8.20
2016,03,30,00,16,8.20
2016,03,30,00,17,8.20
2016,03,30,00,18,8.20
2016,03,30,00,19,8.20
2016,03,30,00,20,8.20
2016,03,30,00,21,8.20
2016,03,30,00,22,8.20
2016,03,30,00,23,8.20
2016,03,30,00,24,8.30
2016,03,30,00,25,8.30
2016,03,30,00,26,8.30
2016,03,30,00,27,8.40
2016,03,30,00,28,8.40
2016,03,30,00,30,8.40
2016,03,30,00,31,8.40
2016,03,30,00,32,8.60
2016,03,30,00,33,8.60
2016,03,30,00,35,8.60
2016,03,30,00,36,8.60
2016,03,30,00,37,8.70
2016,03,30,00,38,8.70
2016,03,30,00,39,8.80
2016,03,30,00,40,8.80
2016,03,30,00,42,8.90
2016,03,30,00,43,8.90
2016,03,30,00,44,8.90
2016,03,30,00,45,9.10
2016,03,30,00,46,9.10
2016,03,30,00,47,9.10
2016,03,30,00,49,9.20
2016,03,30,00,50,9.30
2016,03,30,00,51,9.30
2016,03,30,00,52,9.30
2016,03,30,00,54,9.40
2016,03,30,00,55,9.40
2016,03,30,00,56,9.40
2016,03,30,00,57,9.40
2016,03,30,00,58,9.40
2016,03,30,00,59,9.40
2016,03,30,01,00,9.40
2016,03,30,01,01,9.40
2016,03,30,01,02,9.60
2016,03,30,01,03,9.60
2016,03,30,01,04,9.60
2016,03,30,01,05,9.60
2016,03,30,01,06,9.60
2016,03,30,01,07,9.60
2016,03,30,01,08,9.60
2016,03,30,01,09,9.60
2016,03,30,01,10,9.60
2016,03,30,01,11,9.60
2016,03,30,01,12,9.40
2016,03,30,01,13,9.40
2016,03,30,01,14,9.40
2016,03,30,01,15,9.40
2016,03,30,01,16,9.40
2016,03,30,01,17,9.20
2016,03,30,01,18,9.10
2016,03,30,01,19,9.10
2016,03,30,01,20,8.90
2016,03,30,01,21,8.90
2016,03,30,01,22,8.80
2016,03,30,01,23,8.70
2016,03,30,01,24,8.60
2016,03,30,01,25,8.60
2016,03,30,01,27,8.40
2016,03,30,01,28,8.40
2016,03,30,01,29,8.40
2016,03,30,01,30,8.30
2016,03,30,01,32,8.20
2016,03,30,01,33,8.20
2016,03,30,01,34,8.10
2016,03,30,01,35,8.10
2016,03,30,01,37,8.10
2016,03,30,01,38,8.10
2016,03,30,01,39,8.10
2016,03,30,01,40,7.90
2016,03,30,01,41,7.90
2016,03,30,01,42,7.90
2016,03,30,01,43,7.90
2016,03,30,01,44,7.90
2016,03,30,01,45,7.90
2016,03,30,01,46,7.90
2016,03,30,01,47,7.90
2016,03,30,01,48,7.90
2016,03,30,01,49,7.90
2016,03,30,01,50,7.90
2016,03,30,01,51,7.90
2016,03,30,01,52,7.90
2016,03,30,01,53,7.90
2016,03,30,01,54,7.90
2016,03,30,01,55,7.90
2016,03,30,01,56,7.90
2016,03,30,01,57,7.90
2016,03,30,01,58,7.90
2016,03,30,01,59,7.90
2016,03,30,02,00,7.90
2016,03,30,02,01,7.90
2016,03,30,02,02,7.90
2016,03,30,02,03,7.90
2016,03,30,02,04,7.90
2016,03,30,02,05,7.90
2016,03,30,02,06,7.90
2016,03,30,02,07,8.10
2016,03,30,02,08,8.10
2016,03,30,02,09,8.10
2016,03,30,02,10,8.20
2016,03,30,02,11,8.30
2016,03,30,02,12,8.40
2016,03,30,02,13,8.40
2016,03,30,02,14,8.40
2016,03,30,02,15,8.40
2016,03,30,02,16,8.40
2016,03,30,02,17,8.40
2016,03,30,02,18,8.40
2016,03,30,02,19,8.40
2016,03,30,02,20,8.60
2016,03,30,02,21,8.60
2016,03,30,02,22,8.60
2016,03,30,02,23,8.60
2016,03,30,02,24,8.60
2016,03,30,02,25,8.60
2016,03,30,02,26,8.60
2016,03,30,02,27,8.60
2016,03,30,02,28,8.60
2016,03,30,02,29,8.60
2016,03,30,02,30,8.60
2016,03,30,02,31,8.60
2016,03,30,02,32,8.70
2016,03,30,02,33,8.80
2016,03,30,02,34,8.90
2016,03,30,02,35,8.90
2016,03,30,02,36,8.90
2016,03,30,02,37,9.10
2016,03,30,02,38,9.10
2016,03,30,02,39,9.20
2016,03,30,02,40,9.30
2016,03,30,02,41,9.30
2016,03,30,02,42,9.40
2016,03,30,02,43,9.40
2016,03,30,02,44,9.60
2016,03,30,02,45,9.60
2016,03,30,02,46,9.60
2016,03,30,02,47,9.60
2016,03,30,02,48,9.40
2016,03,30,02,49,9.40
2016,03,30,02,50,9.40
2016,03,30,02,51,9.40
2016,03,30,02,52,9.40
2016,03,30,02,53,9.40
2016,03,30,02,54,9.40
2016,03,30,02,55,9.40
2016,03,30,02,56,9.40
2016,03,30,02,57,9.30
2016,03,30,02,58,9.30
2016,03,30,02,59,9.30
2016,03,30,03,00,9.30
2016,03,30,03,01,9.30
2016,03,30,03,02,9.30
2016,03,30,03,03,9.30
2016,03,30,03,04,9.40
2016,03,30,03,05,9.30
2016,03,30,03,06,9.30
2016,03,30,03,07,9.30
2016,03,30,03,08,9.30
2016,03,30,03,09,9.20
2016,03,30,03,10,9.20
2016,03,30,03,11,9.20
2016,03,30,03,12,9.10
2016,03,30,03,13,9.10
2016,03,30,03,14,9.10
2016,03,30,03,15,8.90
2016,03,30,03,16,8.90
2016,03,30,03,17,8.90
2016,03,30,03,18,8.90
2016,03,30,03,19,8.90
2016,03,30,03,20,8.90
2016,03,30,03,21,8.90
2016,03,30,03,22,8.90
2016,03,30,03,23,8.90
2016,03,30,03,24,8.90
2016,03,30,03,25,8.80
2016,03,30,03,26,8.80
2016,03,30,03,27,8.80
2016,03,30,03,28,8.70
2016,03,30,03,29,8.70
2016,03,30,03,30,8.60
2016,03,30,03,31,8.60
2016,03,30,03,32,8.60
2016,03,30,03,33,8.60
2016,03,30,03,34,8.40
2016,03,30,03,35,8.40
2016,03,30,03,36,8.40
2016,03,30,03,37,8.30
2016,03,30,03,38,8.30
2016,03,30,03,39,8.30
2016,03,30,03,40,8.30
2016,03,30,03,41,8.30
2016,03,30,03,42,8.30
2016,03,30,03,43,8.20
2016,03,30,03,44,8.20
2016,03,30,03,45,8.20
2016,03,30,03,46,8.20
2016,03,30,03,47,8.20
2016,03,30,03,48,8.10
2016,03,30,03,49,8.10
2016,03,30,03,50,8.10
2016,03,30,03,51,8.10
2016,03,30,03,52,8.10
2016,03,30,03,53,8.10
2016,03,30,03,54,8.10
2016,03,30,03,55,7.90
2016,03,30,03,56,7.90
2016,03,30,03,57,7.90
2016,03,30,03,58,7.90
2016,03,30,03,59,7.90
2016,03,30,04,00,7.80
2016,03,30,04,01,7.80
2016,03,30,04,02,7.80
2016,03,30,04,03,7.70
2016,03,30,04,04,7.70
2016,03,30,04,05,7.70
2016,03,30,04,06,7.70
2016,03,30,04,07,7.70
2016,03,30,04,09,7.70
2016,03,30,04,11,7.50
2016,03,30,04,12,7.40
2016,03,30,04,13,7.40
2016,03,30,04,14,7.30
2016,03,30,04,16,7.20
2016,03,30,04,18,7.20
2016,03,30,04,19,7.20
2016,03,30,04,21,7.00
2016,03,30,04,23,7.00
2016,03,30,04,24,7.00
2016,03,30,04,25,6.90
2016,03,30,04,26,6.90
2016,03,30,04,28,6.90
2016,03,30,04,30,6.90
2016,03,30,04,31,6.80
2016,03,30,04,32,6.80
2016,03,30,04,33,6.80
2016,03,30,04,35,6.80
2016,03,30,04,36,6.80
2016,03,30,04,37,6.90
2016,03,30,04,38,6.90
2016,03,30,04,40,7.10
2016,03,30,04,41,7.10
2016,03,30,04,42,7.20
2016,03,30,04,43,7.20
2016,03,30,04,45,7.20
2016,03,30,04,46,7.30
2016,03,30,04,47,7.30
2016,03,30,04,48,7.30
2016,03,30,04,50,7.30
2016,03,30,04,51,7.30
2016,03,30,04,52,7.30
2016,03,30,04,53,7.20
2016,03,30,04,55,7.20
2016,03,30,04,56,7.20
2016,03,30,04,57,7.20
2016,03,30,04,58,7.10
2016,03,30,05,00,7.00
2016,03,30,05,02,7.00
2016,03,30,05,03,7.00
2016,03,30,05,04,7.10
2016,03,30,05,05,7.20
2016,03,30,05,07,7.20
2016,03,30,05,08,7.20
2016,03,30,05,09,7.20
2016,03,30,05,10,7.30
2016,03,30,05,12,7.30
2016,03,30,05,13,7.30
2016,03,30,05,14,7.30
2016,03,30,05,15,7.20
2016,03,30,05,17,7.20
2016,03,30,05,18,7.20
2016,03,30,05,19,7.20
2016,03,30,05,20,7.20
2016,03,30,05,22,7.10
2016,03,30,05,23,7.10
2016,03,30,05,24,7.00
2016,03,30,05,25,7.00
2016,03,30,05,27,6.90
2016,03,30,05,28,6.90
2016,03,30,05,29,6.80
2016,03,30,05,30,6.80
2016,03,30,05,31,6.80
2016,03,30,05,32,6.80
2016,03,30,05,34,6.70
2016,03,30,05,35,6.60
2016,03,30,05,36,6.60
2016,03,30,05,37,6.60
2016,03,30,05,38,6.60
2016,03,30,05,39,6.60
2016,03,30,05,41,6.60
2016,03,30,05,42,6.60
2016,03,30,05,43,6.60
2016,03,30,05,44,6.60
2016,03,30,05,46,6.60
2016,03,30,05,47,6.60
2016,03,30,05,48,6.60
2016,03,30,05,49,6.60
2016,03,30,05,50,6.70
2016,03,30,05,51,6.80
2016,03,30,05,53,6.80
2016,03,30,05,54,6.80
2016,03,30,05,55,6.70
2016,03,30,05,56,6.70
2016,03,30,05,58,6.60
2016,03,30,05,59,6.60
2016,03,30,06,00,6.60
2016,03,30,06,01,6.50
2016,03,30,06,02,6.50
2016,03,30,06,03,6.50
2016,03,30,06,04,6.50
2016,03,30,06,05,6.50
2016,03,30,06,06,6.50
2016,03,30,06,07,6.50
2016,03,30,06,08,6.50
2016,03,30,06,09,6.50
2016,03,30,06,10,6.50
2016,03,30,06,11,6.50
2016,03,30,06,12,6.50
2016,03,30,06,13,6.50
2016,03,30,06,14,6.50
2016,03,30,06,15,6.50
2016,03,30,06,16,6.50
2016,03,30,06,17,6.50
2016,03,30,06,18,6.50
2016,03,30,06,19,6.50
2016,03,30,06,20,6.50
2016,03,30,06,22,6.60
2016,03,30,06,23,6.70
2016,03,30,06,24,6.70
2016,03,30,06,25,6.70
2016,03,30,06,27,6.70
2016,03,30,06,28,6.70
2016,03,30,06,29,6.60
2016,03,30,06,30,6.60
2016,03,30,06,31,6.50
2016,03,30,06,32,6.50
2016,03,30,06,34,6.40
2016,03,30,06,35,6.30
2016,03,30,06,36,6.30
2016,03,30,06,37,6.30
2016,03,30,06,39,6.30
2016,03,30,06,40,6.30
2016,03,30,06,41,6.30
2016,03,30,06,42,6.30
2016,03,30,06,43,6.30
2016,03,30,06,44,6.30
2016,03,30,06,46,6.30
2016,03,30,06,47,6.30
2016,03,30,06,48,6.30
2016,03,30,06,49,6.30
2016,03,30,06,50,6.30
2016,03,30,06,51,6.30
2016,03,30,06,52,6.30
2016,03,30,06,53,6.30
2016,03,30,06,54,6.30
2016,03,30,06,55,6.30
2016,03,30,06,56,6.30
2016,03,30,06,58,6.40
2016,03,30,06,59,6.40
2016,03,30,07,00,6.40
2016,03,30,07,01,6.40
2016,03,30,07,02,6.40
2016,03,30,07,03,6.40
2016,03,30,07,05,6.30
2016,03,30,07,06,6.40
2016,03,30,07,07,6.40
2016,03,30,07,08,6.40
2016,03,30,07,10,6.40
2016,03,30,07,11,6.40
2016,03,30,07,12,6.40
2016,03,30,07,13,6.40
2016,03,30,07,14,6.40
2016,03,30,07,15,6.40
2016,03,30,07,17,6.50
2016,03,30,07,18,6.60
2016,03,30,07,19,6.60
2016,03,30,07,20,6.60
2016,03,30,07,22,6.50
2016,03,30,07,23,6.50
2016,03,30,07,24,6.50
2016,03,30,07,25,6.50
2016,03,30,07,26,6.50
2016,03,30,07,27,6.50
2016,03,30,07,28,6.50
2016,03,30,07,29,6.50
2016,03,30,07,30,6.50
2016,03,30,07,31,6.50
2016,03,30,07,32,6.50
2016,03,30,07,33,6.50
2016,03,30,07,34,6.70
2016,03,30,07,35,6.70
2016,03,30,07,36,6.70
2016,03,30,07,37,6.80
2016,03,30,07,38,6.80
2016,03,30,07,39,6.80
2016,03,30,07,40,6.80
2016,03,30,07,41,6.80
2016,03,30,07,42,6.80
2016,03,30,07,43,6.80
2016,03,30,07,44,6.80
2016,03,30,07,45,6.80
2016,03,30,07,46,6.80
2016,03,30,07,47,6.80
2016,03,30,07,48,6.80
2016,03,30,07,49,6.90
2016,03,30,07,50,7.00
2016,03,30,07,51,7.00
2016,03,30,07,52,7.10
2016,03,30,07,54,7.10
2016,03,30,07,55,7.20
2016,03,30,07,56,7.20
2016,03,30,07,57,7.20
2016,03,30,07,58,7.20
2016,03,30,07,59,7.20
2016,03,30,08,00,7.20
2016,03,30,08,01,7.20
2016,03,30,08,02,7.20
2016,03,30,08,03,7.30
2016,03,30,08,04,7.30
2016,03,30,08,05,7.30
2016,03,30,08,06,7.40
2016,03,30,08,07,7.40
2016,03,30,08,08,7.50
2016,03,30,08,09,7.50
2016,03,30,08,10,7.50
2016,03,30,08,11,7.70
2016,03,30,08,12,7.70
2016,03,30,08,13,7.70
2016,03,30,08,14,7.80
2016,03,30,08,15,7.90
2016,03,30,08,16,7.90
2016,03,30,08,17,7.90
2016,03,30,08,18,8.10
2016,03,30,08,19,8.10
2016,03,30,08,20,8.10
2016,03,30,08,21,8.10
2016,03,30,08,22,8.10
2016,03,30,08,23,8.20
2016,03,30,08,24,8.30
2016,03,30,08,25,8.30
2016,03,30,08,26,8.40
2016,03,30,08,27,8.40
2016,03,30,08,28,8.40
2016,03,30,08,29,8.60
2016,03,30,08,30,8.60
2016,03,30,08,31,8.70
2016,03,30,08,32,8.80
2016,03,30,08,33,8.90
2016,03,30,08,34,9.10
2016,03,30,08,35,9.10
2016,03,30,08,36,9.20
2016,03,30,08,37,9.40
2016,03,30,08,38,9.40
2016,03,30,08,39,9.60
2016,03,30,08,40,9.60
2016,03,30,08,41,9.60
2016,03,30,08,42,9.70
2016,03,30,08,43,9.80
2016,03,30,08,44,9.90
2016,03,30,08,45,10.10
2016,03,30,08,46,10.20
2016,03,30,08,47,10.30
2016,03,30,08,48,10.30
2016,03,30,08,49,10.60
2016,03,30,08,50,10.70
2016,03,30,08,51,10.80
2016,03,30,08,52,10.80
2016,03,30,08,53,10.90
2016,03,30,08,54,11.00
2016,03,30,08,55,11.10
2016,03,30,08,56,11.20
2016,03,30,08,57,11.30
2016,03,30,08,58,11.50
2016,03,30,08,59,11.60
2016,03,30,09,00,11.70
2016,03,30,09,01,11.80
2016,03,30,09,02,11.80
2016,03,30,09,03,12.00
2016,03,30,09,04,12.10
2016,03,30,09,05,12.20
2016,03,30,09,06,12.20
2016,03,30,09,07,12.20
2016,03,30,09,08,12.30
2016,03,30,09,09,12.40
2016,03,30,09,10,12.50
2016,03,30,09,11,12.60
2016,03,30,09,12,12.70
2016,03,30,09,13,12.70
2016,03,30,09,14,12.80
2016,03,30,09,15,12.90
2016,03,30,09,16,13.00
2016,03,30,09,17,13.00
2016,03,30,09,18,13.10
2016,03,30,09,19,13.20
2016,03,30,09,20,13.20
2016,03,30,09,21,13.10
2016,03,30,09,22,13.20
2016,03,30,09,23,13.20
2016,03,30,09,24,13.20
2016,03,30,09,25,13.20
2016,03,30,09,26,13.20
2016,03,30,09,27,13.30
2016,03,30,09,28,13.30
2016,03,30,09,29,13.30
2016,03,30,09,30,13.40
2016,03,30,09,31,13.40
2016,03,30,09,32,13.40
2016,03,30,09,33,13.50
2016,03,30,09,34,13.50
2016,03,30,09,35,13.40
2016,03,30,09,36,13.40
2016,03,30,09,37,13.40
2016,03,30,09,38,13.30
2016,03,30,09,39,13.30
2016,03,30,09,40,13.20
2016,03,30,09,41,13.20
2016,03,30,09,42,13.20
2016,03,30,09,43,13.20
2016,03,30,09,44,13.20
2016,03,30,09,45,13.20
2016,03,30,09,46,13.20
2016,03,30,09,47,13.20
2016,03,30,09,48,13.20
2016,03,30,09,49,13.20
2016,03,30,09,50,13.20
2016,03,30,09,52,13.20
2016,03,30,09,53,13.30
2016,03,30,09,55,13.30
2016,03,30,09,57,13.40
2016,03,30,09,58,13.50
2016,03,30,10,00,13.60
2016,03,30,10,02,13.60
2016,03,30,10,03,13.60
2016,03,30,10,05,13.50
2016,03,30,10,07,13.50
2016,03,30,10,08,13.60
2016,03,30,10,09,13.60
2016,03,30,10,10,13.60
2016,03,30,10,12,13.60
2016,03,30,10,14,13.60
2016,03,30,10,15,13.60
2016,03,30,10,16,13.60
2016,03,30,10,17,13.60
2016,03,30,10,19,13.60
2016,03,30,10,20,13.70
2016,03,30,10,21,13.70
2016,03,30,10,22,13.70
2016,03,30,10,24,13.70
2016,03,30,10,26,13.70
2016,03,30,10,27,13.80
2016,03,30,10,28,13.80
2016,03,30,10,29,13.80
2016,03,30,10,31,13.80
2016,03,30,10,32,13.70
2016,03,30,10,33,13.70
2016,03,30,10,34,13.60
2016,03,30,10,35,13.50
2016,03,30,10,36,13.50
2016,03,30,10,38,13.50
2016,03,30,10,39,13.50
2016,03,30,10,40,13.50
2016,03,30,10,41,13.50
2016,03,30,10,43,13.60
2016,03,30,10,44,13.70
2016,03,30,10,45,13.70
2016,03,30,10,46,13.70
2016,03,30,10,47,13.70
2016,03,30,10,48,13.70
2016,03,30,10,50,13.70
2016,03,30,10,51,13.70
2016,03,30,10,52,13.80
2016,03,30,10,53,13.90
2016,03,30,10,55,13.90
2016,03,30,10,56,14.10
2016,03,30,10,57,14.10
2016,03,30,10,58,14.10
2016,03,30,10,59,14.20
2016,03,30,11,00,14.30
2016,03,30,11,02,14.40
2016,03,30,11,03,14.50
2016,03,30,11,04,14.60
2016,03,30,11,05,14.60
2016,03,30,11,07,14.70
2016,03,30,11,08,14.70
2016,03,30,11,09,14.70
2016,03,30,11,10,14.70
2016,03,30,11,11,14.70
2016,03,30,11,12,14.70
2016,03,30,11,14,14.80
2016,03,30,11,15,14.80
2016,03,30,11,16,14.90
2016,03,30,11,17,14.90
2016,03,30,11,19,14.90
2016,03,30,11,20,14.90
2016,03,30,11,21,14.90
2016,03,30,11,22,14.80
2016,03,30,11,24,14.80
2016,03,30,11,25,14.80
2016,03,30,11,26,14.80
2016,03,30,11,27,14.80
2016,03,30,11,29,14.90
2016,03,30,11,30,15.00
2016,03,30,11,31,15.00
2016,03,30,11,32,14.90
2016,03,30,11,33,14.90
2016,03,30,11,34,14.90
2016,03,30,11,35,14.90
2016,03,30,11,36,14.90
2016,03,30,11,37,14.90
2016,03,30,11,38,14.90
2016,03,30,11,39,15.00
2016,03,30,11,41,15.00
2016,03,30,11,42,15.00
2016,03,30,11,43,15.00
2016,03,30,11,44,15.00
2016,03,30,11,45,15.00
2016,03,30,11,46,15.00
2016,03,30,11,47,15.00
2016,03,30,11,48,15.00
2016,03,30,11,49,15.00
2016,03,30,11,50,15.10
2016,03,30,11,51,15.20
2016,03,30,11,52,15.20
2016,03,30,11,53,15.20
2016,03,30,11,54,15.30
2016,03,30,11,55,15.30
2016,03,30,11,56,15.20
2016,03,30,11,58,15.20
2016,03,30,11,59,15.30
2016,03,30,12,00,15.30
2016,03,30,12,01,15.20
2016,03,30,12,02,15.20
2016,03,30,12,03,15.20
2016,03,30,12,05,15.20
2016,03,30,12,06,15.20
2016,03,30,12,07,15.20
2016,03,30,12,08,15.20
2016,03,30,12,09,15.20
2016,03,30,12,10,15.20
2016,03,30,12,11,15.20
2016,03,30,12,12,15.20
2016,03,30,12,13,15.20
2016,03,30,12,14,15.20
2016,03,30,12,15,15.30
2016,03,30,12,17,15.30
2016,03,30,12,18,15.30
2016,03,30,12,19,15.40
2016,03,30,12,20,15.40
2016,03,30,12,22,15.50
2016,03,30,12,23,15.50
2016,03,30,12,24,15.50
2016,03,30,12,25,15.50
2016,03,30,12,27,15.40
2016,03,30,12,28,15.40
2016,03,30,12,29,15.30
2016,03,30,12,30,15.30
2016,03,30,12,31,15.30
2016,03,30,12,32,15.30
2016,03,30,12,33,15.30
2016,03,30,12,34,15.20
2016,03,30,12,35,15.20
2016,03,30,12,36,15.20
2016,03,30,12,37,15.20
2016,03,30,12,38,15.20
2016,03,30,12,39,15.20
2016,03,30,12,40,15.20
2016,03,30,12,41,15.20
2016,03,30,12,42,15.30
2016,03,30,12,43,15.30
2016,03,30,12,44,15.30
2016,03,30,12,45,15.30
2016,03,30,12,46,15.40
2016,03,30,12,47,15.40
2016,03,30,12,48,15.40
2016,03,30,12,49,15.40
2016,03,30,12,50,15.40
2016,03,30,12,51,15.40
2016,03,30,12,52,15.50
2016,03,30,12,53,15.50
2016,03,30,12,54,15.50
2016,03,30,12,55,15.60
2016,03,30,12,56,15.60
2016,03,30,12,57,15.60
2016,03,30,12,58,15.60
2016,03,30,12,59,15.60
2016,03,30,13,00,15.60
2016,03,30,13,01,15.70
2016,03,30,13,02,15.70
2016,03,30,13,03,15.70
2016,03,30,13,04,15.70
2016,03,30,13,05,15.70
2016,03,30,13,06,15.70
2016,03,30,13,07,15.70
2016,03,30,13,08,15.70
2016,03,30,13,09,15.70
2016,03,30,13,10,15.70
2016,03,30,13,11,15.70
2016,03,30,13,12,15.70
2016,03,30,13,13,15.70
2016,03,30,13,14,15.70
2016,03,30,13,15,15.80
2016,03,30,13,16,15.80
2016,03,30,13,17,15.90
2016,03,30,13,18,15.90
2016,03,30,13,19,15.90
2016,03,30,13,20,16.00
2016,03,30,13,21,16.00
2016,03,30,13,22,16.10
2016,03,30,13,23,16.10
2016,03,30,13,24,16.00
2016,03,30,13,25,16.00
2016,03,30,13,26,16.00
2016,03,30,13,27,15.90
2016,03,30,13,28,15.90
2016,03,30,13,29,15.80
2016,03,30,13,30,15.80
2016,03,30,13,31,15.80
2016,03,30,13,32,15.70
2016,03,30,13,33,15.70
2016,03,30,13,34,15.70
2016,03,30,13,35,15.70
2016,03,30,13,36,15.70
2016,03,30,13,37,15.60
2016,03,30,13,38,15.60
2016,03,30,13,39,15.50
2016,03,30,13,40,15.50
2016,03,30,13,41,15.40
2016,03,30,13,42,15.40
2016,03,30,13,43,15.40
2016,03,30,13,44,15.40
2016,03,30,13,45,15.40
2016,03,30,13,46,15.40
2016,03,30,13,47,15.40
2016,03,30,13,48,15.40
2016,03,30,13,49,15.40
2016,03,30,13,50,15.40
2016,03,30,13,51,15.30
2016,03,30,13,52,15.20
2016,03,30,13,53,15.20
2016,03,30,13,54,15.20
2016,03,30,13,55,15.20
2016,03,30,13,56,15.20
2016,03,30,13,57,15.20
2016,03,30,13,58,15.20
2016,03,30,13,59,15.20
2016,03,30,14,00,15.20
2016,03,30,14,01,15.20
2016,03,30,14,02,15.10
2016,03,30,14,03,15.10
2016,03,30,14,04,15.10
2016,03,30,14,05,15.10
2016,03,30,14,06,15.10
2016,03,30,14,08,15.20
2016,03,30,14,09,15.20
2016,03,30,14,10,15.20
2016,03,30,14,11,15.20
2016,03,30,14,13,15.40
2016,03,30,14,15,15.50
2016,03,30,14,16,15.50
2016,03,30,14,18,15.50
2016,03,30,14,20,15.40
2016,03,30,14,21,15.30
2016,03,30,14,22,15.20
2016,03,30,14,23,15.20
2016,03,30,14,25,15.10
2016,03,30,14,26,15.10
2016,03,30,14,27,15.10
2016,03,30,14,28,15.20
2016,03,30,14,30,15.20
2016,03,30,14,31,15.20
2016,03,30,14,32,15.30
2016,03,30,14,33,15.40
2016,03,30,14,35,15.50
2016,03,30,14,36,15.50
2016,03,30,14,37,15.60
2016,03,30,14,38,15.70
2016,03,30,14,40,15.70
2016,03,30,14,41,15.70
2016,03,30,14,42,15.70
2016,03,30,14,43,15.70
2016,03,30,14,45,15.70
2016,03,30,14,46,15.70
2016,03,30,14,47,15.60
2016,03,30,14,48,15.60
2016,03,30,14,49,15.50
2016,03,30,14,50,15.50
2016,03,30,14,52,15.40
2016,03,30,14,53,15.30
2016,03,30,14,54,15.30
2016,03,30,14,55,15.30
2016,03,30,14,57,15.40
2016,03,30,14,58,15.40
2016,03,30,14,59,15.40
2016,03,30,15,00,15.50
2016,03,30,15,02,15.60
2016,03,30,15,03,15.60
2016,03,30,15,04,15.70
2016,03,30,15,05,15.70
2016,03,30,15,07,15.70
2016,03,30,15,08,15.70
2016,03,30,15,09,15.70
2016,03,30,15,10,15.70
2016,03,30,15,11,15.70
2016,03,30,15,12,15.70
2016,03,30,15,14,15.80
2016,03,30,15,15,15.80
2016,03,30,15,16,15.80
2016,03,30,15,17,15.80
2016,03,30,15,18,15.90
2016,03,30,15,19,15.90
2016,03,30,15,21,15.90
2016,03,30,15,22,15.90
2016,03,30,15,23,15.90
2016,03,30,15,24,15.80
2016,03,30,15,26,15.70
2016,03,30,15,27,15.70
2016,03,30,15,28,15.70
2016,03,30,15,29,15.70
2016,03,30,15,30,15.70
2016,03,30,15,31,15.70
2016,03,30,15,32,15.70
2016,03,30,15,33,15.70
2016,03,30,15,34,15.70
2016,03,30,15,35,15.80
2016,03,30,15,36,15.90
2016,03,30,15,37,15.90
2016,03,30,15,38,16.00
2016,03,30,15,40,16.10
2016,03,30,15,41,16.10
2016,03,30,15,42,16.10
2016,03,30,15,43,16.10
2016,03,30,15,44,16.10
2016,03,30,15,45,16.10
2016,03,30,15,47,16.10
2016,03,30,15,48,16.10
2016,03,30,15,49,16.10
2016,03,30,15,50,16.10
2016,03,30,15,52,16.10
2016,03,30,15,53,16.10
2016,03,30,15,54,16.20
2016,03,30,15,55,16.20
2016,03,30,15,57,16.30
2016,03,30,15,58,16.30
2016,03,30,15,59,16.30
2016,03,30,16,00,16.30
2016,03,30,16,02,16.40
2016,03,30,16,03,16.40
2016,03,30,16,04,16.50
2016,03,30,16,05,16.50
2016,03,30,16,06,16.50
2016,03,30,16,07,16.50
2016,03,30,16,09,16.60
2016,03,30,16,10,16.60
2016,03,30,16,11,16.70
2016,03,30,16,12,16.70
2016,03,30,16,13,16.70
2016,03,30,16,14,16.70
2016,03,30,16,15,16.70
2016,03,30,16,16,16.70
2016,03,30,16,17,16.70
2016,03,30,16,18,16.80
2016,03,30,16,19,16.80
2016,03,30,16,20,16.90
2016,03,30,16,21,16.90
2016,03,30,16,22,16.90
2016,03,30,16,23,16.90
2016,03,30,16,24,17.10
2016,03,30,16,25,17.10
2016,03,30,16,26,17.10
2016,03,30,16,27,17.10
2016,03,30,16,28,17.10
2016,03,30,16,29,17.10
2016,03,30,16,30,17.10
2016,03,30,16,31,17.10
2016,03,30,16,32,17.20
2016,03,30,16,33,17.20
2016,03,30,16,34,17.20
2016,03,30,16,36,17.20
2016,03,30,16,37,17.20
2016,03,30,16,38,17.20
2016,03,30,16,39,17.20
2016,03,30,16,40,17.30
2016,03,30,16,41,17.30
2016,03,30,16,42,17.30
2016,03,30,16,43,17.30
2016,03,30,16,44,17.30
2016,03,30,16,45,17.30
2016,03,30,16,46,17.30
2016,03,30,16,48,17.30
2016,03,30,16,49,17.20
2016,03,30,16,50,17.20
2016,03,30,16,51,17.20
2016,03,30,16,52,17.20
2016,03,30,16,53,17.10
2016,03,30,16,54,17.10
2016,03,30,16,55,17.20
2016,03,30,16,56,17.20
2016,03,30,16,57,17.20
2016,03,30,16,58,17.20
2016,03,30,17,00,17.20
2016,03,30,17,01,17.20
2016,03,30,17,02,17.20
2016,03,30,17,03,17.20
2016,03,30,17,04,17.20
2016,03,30,17,05,17.20
2016,03,30,17,07,17.20
2016,03,30,17,08,17.20
2016,03,30,17,09,17.20
2016,03,30,17,10,17.20
2016,03,30,17,11,17.30
2016,03,30,17,12,17.30
2016,03,30,17,13,17.30
2016,03,30,17,14,17.40
2016,03,30,17,15,17.50
2016,03,30,17,16,17.60
2016,03,30,17,17,17.60
2016,03,30,17,19,17.70
2016,03,30,17,20,17.70
2016,03,30,17,21,17.70
2016,03,30,17,22,17.70
2016,03,30,17,23,17.70
2016,03,30,17,24,17.70
2016,03,30,17,26,17.50
2016,03,30,17,27,17.50
2016,03,30,17,28,17.40
2016,03,30,17,29,17.30
2016,03,30,17,30,17.20
2016,03,30,17,31,17.10
2016,03,30,17,32,17.10
2016,03,30,17,33,17.10
2016,03,30,17,34,17.10
2016,03,30,17,35,17.10
2016,03,30,17,36,17.10
2016,03,30,17,37,17.10
2016,03,30,17,38,17.10
2016,03,30,17,39,17.10
2016,03,30,17,40,17.10
2016,03,30,17,41,17.10
2016,03,30,17,42,17.10
2016,03,30,17,43,17.10
2016,03,30,17,44,16.90
2016,03,30,17,45,16.90
2016,03,30,17,46,16.80
2016,03,30,17,47,16.70
2016,03,30,17,48,16.70
2016,03,30,17,49,16.60
2016,03,30,17,50,16.60
2016,03,30,17,51,16.50
2016,03,30,17,52,16.50
2016,03,30,17,53,16.40
2016,03,30,17,54,16.30
2016,03,30,17,55,16.30
2016,03,30,17,56,16.30
2016,03,30,17,57,16.30
2016,03,30,17,58,16.30
2016,03,30,17,59,16.30
2016,03,30,18,00,16.30
2016,03,30,18,01,16.30
2016,03,30,18,02,16.30
2016,03,30,18,03,16.30
2016,03,30,18,04,16.30
2016,03,30,18,05,16.30
2016,03,30,18,06,16.30
2016,03,30,18,07,16.30
2016,03,30,18,08,16.30
2016,03,30,18,09,16.30
2016,03,30,18,10,16.30
2016,03,30,18,11,16.30
2016,03,30,18,12,16.20
2016,03,30,18,13,16.20
2016,03,30,18,14,16.20
2016,03,30,18,15,16.10
2016,03,30,18,16,16.10
2016,03,30,18,17,16.10
2016,03,30,18,18,16.10
2016,03,30,18,19,16.10
2016,03,30,18,20,16.10
2016,03,30,18,21,16.10
2016,03,30,18,22,16.10
2016,03,30,18,23,16.10
2016,03,30,18,24,16.10
2016,03,30,18,25,16.10
2016,03,30,18,26,16.10
2016,03,30,18,27,16.00
2016,03,30,18,28,16.00
2016,03,30,18,29,16.00
2016,03,30,18,30,16.00
2016,03,30,18,31,16.00
2016,03,30,18,32,16.00
2016,03,30,18,33,16.00
2016,03,30,18,34,15.90
2016,03,30,18,35,15.90
2016,03,30,18,36,15.90
2016,03,30,18,37,15.90
2016,03,30,18,38,15.80
2016,03,30,18,39,15.80
2016,03,30,18,40,15.80
2016,03,30,18,41,15.70
2016,03,30,18,42,15.70
2016,03,30,18,43,15.70
2016,03,30,18,44,15.70
2016,03,30,18,45,15.70
2016,03,30,18,46,15.70
2016,03,30,18,47,15.70
2016,03,30,18,48,15.60
2016,03,30,18,49,15.60
2016,03,30,18,50,15.60
2016,03,30,18,51,15.50
2016,03,30,18,52,15.50
2016,03,30,18,53,15.40
2016,03,30,18,54,15.40
2016,03,30,18,55,15.40
2016,03,30,18,56,15.30
2016,03,30,18,57,15.30
2016,03,30,18,58,15.20
2016,03,30,18,59,15.20
2016,03,30,19,00,15.20
2016,03,30,19,01,15.20
2016,03,30,19,02,15.10
2016,03,30,19,03,15.10
2016,03,30,19,04,15.10
2016,03,30,19,05,15.00
2016,03,30,19,06,15.00
2016,03,30,19,07,14.90
2016,03,30,19,08,14.90
2016,03,30,19,09,14.90
2016,03,30,19,10,14.80
2016,03,30,19,11,14.80
2016,03,30,19,12,14.70
2016,03,30,19,13,14.70
2016,03,30,19,14,14.70
2016,03,30,19,15,14.70
2016,03,30,19,16,14.70
2016,03,30,19,17,14.60
2016,03,30,19,18,14.60
2016,03,30,19,19,14.50
2016,03,30,19,20,14.50
2016,03,30,19,21,14.40
2016,03,30,19,22,14.40
2016,03,30,19,23,14.30
2016,03,30,19,24,14.30